Location: ???????
(54.9567°N, 38.2836°E)
Time: 19:48:36
(UTC+00:00)

Cosmos 44 Rocket - Pass Details

Date: 14 April 2024
Orbit: 641 x 743 km, 65.1° (Epoch: 18 May)

Event Time Altitude Azimuth Distance (km) Brightness Sun altitude
Exits shadow 00:10:13 30° 214° (SW) 1,317 4.1 -17.1°
Maximum altitude 00:12:49 78° 133° (SE) 764 3.4 -16.8°
Drops below altitude 10° 00:17:59 10° 48° (NE) 2,245 7.3 -16.3°
Sets 00:20:20 0° 47° (NE) 3,159 8.6 -16.1°
